Location: Long Geng
(2.6167°N, 114.1333°E)
Time: 21:07:16
(UTC+00:00)

Ariane 44LP R/B - Pass Details

Date: 27 September 2021
Orbit: 477 x 17832 km, 3.6° (Epoch: 19 October)

Event Time Altitude Azimuth Distance (km) Brightness Sun altitude
Rises 15:37:51 0° 264° (W) 9,365 9.7 -80.9°
Reaches altitude 10° 15:47:28 10° 262° (W) 5,848 8.5 -83.2°
Enters shadow 15:47:54 11° 262° (W) 5,676 8.4 -83.4°
